IRIDIUM 33 DEB, 38477

Orbit data source: Space-Track

IRIDIUM 33 DEB, 38477 is space debris in LEO originally from a launch on Sun, 14 Sep 1997 UTC launched from the Tyuratam Missile And Space Complex (TTMTR). The debris from Iridium 33, an American commercial communications satellite, has been tracked extensively since its accidental collision with the defunct Russian satellite Cosmos 2251 in 2009. This event, occurring at high speed in low Earth orbit (LEO), generated thousands of pieces of space debris, significantly increasing the risk of further collisions. The Iridium 33 debris cloud has impacted space traffic management and orbital debris mitigation strategies, making it a subject of ongoing study in space situational awareness.

Loading next visibility...
Identifier
38477, 1997-051AAE
Orbit
LEO
Country
Flag of USUS
Related business
Manufacturer
Unknown
Mission
Spacecraft
Bus & Motor
Unknown
Mass
Unknown
Launch date (UTC)
1997-09-14 (28 years ago)
Launch vehicle
Unknown
Launch site
Tyuratam Missile And Space Complex (TTMTR)
Object type
Payload
Rocket body
Debris
Shape & HBR
Unknown
Radar Cross Section
Small (<0.1 m²)

Expand to show TLE details & history
Last TLE update: 10 months ago

TLE from 10 months ago
0 IRIDIUM 33 DEB
1 38477U 97051AAE 24315.09186608  .00036230  00000-0  29584-1 0  9997
2 38477  86.4072 251.6412 0422319 302.9794  53.1420 13.54985939712814
Epoch: 2024-11-10T02:12Z
TLE epoch observation values (Epoch: 2024-11-10T02:12:17.229Z)
Latitude
-0°
Longitude
168.83296°
Altitude
877.426 km
Speed
7.502 km/s
True Right ascension
16h 46m 33s
True Declination
0° 00' 00"
Sunlit
Object was in daylight at epoch
Visualization orbit readout
Latitude
Unknown
Longitude
Unknown
Altitude
Unknown
Speed
Unknown
Apparent Right ascension
Unknown
Apparent Declination
Unknown
Sunlit
N/A
Visualization observer readout
Local Sidereal Time
18:03:21
Azimuth
Unknown
Elevation
Unknown
Doppler factor
Unknown
Orbital elements
Apogee altitude
1,364.788 km
Perigee altitude
737.292 km
Semi-major axis
7,429.177 km
Eccentricity
0.04223
Inclination
86.4072°
RAAN
251.6412°
Arg. of periapsis
302.9794°
True anomaly
57.13733°
Mean anomaly
53.142°
Eccentric anomaly
55.12719°
Mean motion
3.38947 °/min
Orbital period
106.21 mins
BSTAR
0.029584
Loading maneuver chart data...
Computing Atmospheric mass density...

Documentation

Showing up to 5 results
|